When you browse on this site, cookies collect data to enhance your experience and personalize the content and advertising you see.
Visit our Privacy Policy to learn more. By continuing to use the site, you agree to this use of cookies and data.
  • In Spain
  • List of Countries
  • For 7 days
  • Water Temperature
  • Satellite Maps
  • Weather Map
  • Weather Widgets
  • user-avatar
    Login

    Hourly Weather Zaranj

    Today, 16 January, Wednesday

    Time Temperature Precipitation Wind Pressure Humidity
    00:00 +18°C° 0 mm 1 mps 719 mmHg 23%
    01:00 +18°C° 0 mm 1 mps 719 mmHg 23%
    02:00 +16°C° 0 mm 1 mps 719 mmHg 23%
    03:00 +16°C° 0 mm 1 mps 719 mmHg 23%
    04:00 +14°C° 0 mm 0 mps 719 mmHg 20%
    05:00 +15°C° 0 mm 1 mps 719 mmHg 23%
    06:00 +15°C° 0 mm 2 mps 720 mmHg 25%
    07:00 +15°C° 0 mm 2 mps 720 mmHg 28%
    08:00 +17°C° 0 mm 2 mps 720 mmHg 26%
    09:00 +18°C° 0 mm 2 mps 721 mmHg 25%
    10:00 +20°C° 0 mm 2 mps 722 mmHg 23%
    11:00 +21°C° 0 mm 2 mps 721 mmHg 21%
    12:00 +23°C° 0 mm 2 mps 721 mmHg 20%
    13:00 +23°C° 0 mm 2 mps 721 mmHg 18%
    14:00 +24°C° 0 mm 1 mps 720 mmHg 18%
    15:00 +24°C° 0 mm 1 mps 720 mmHg 18%
    16:00 +24°C° 0 mm 1 mps 720 mmHg 19%
    17:00 +23°C° 0 mm 1 mps 720 mmHg 21%
    18:00 +21°C° 0 mm 2 mps 720 mmHg 22%
    19:00 +19°C° 0 mm 2 mps 720 mmHg 24%
    20:00 +20°C° 0 mm 1 mps 720 mmHg 26%
    21:00 +19°C° 0 mm 1 mps 720 mmHg 27%
    22:00 +18°C° 0 mm 1 mps 720 mmHg 29%
    23:00 +18°C° 0 mm 1 mps 719 mmHg 30%

    Tomorrow, 17 January, Thursday

    Time Temperature Precipitation Wind Pressure Humidity
    00:00 +18°C° 0 mm 1 mps 719 mmHg 30%
    01:00 +17°C° 0 mm 2 mps 719 mmHg 31%
    02:00 +17°C° 0 mm 2 mps 719 mmHg 32%
    03:00 +16°C° 0 mm 2 mps 718 mmHg 34%
    04:00 +16°C° 0 mm 2 mps 718 mmHg 35%
    05:00 +16°C° 0 mm 2 mps 718 mmHg 37%
    06:00 +15°C° 0 mm 2 mps 718 mmHg 39%
    07:00 +15°C° 0 mm 2 mps 718 mmHg 41%
    08:00 +16°C° 0 mm 2 mps 718 mmHg 37%
    09:00 +18°C° 0 mm 3 mps 718 mmHg 33%
    10:00 +20°C° 0 mm 3 mps 718 mmHg 29%
    11:00 +21°C° 0 mm 3 mps 718 mmHg 27%
    12:00 +24°C° 0 mm 2 mps 717 mmHg 24%
    13:00 +26°C° 0 mm 2 mps 717 mmHg 21%
    14:00 +26°C° 0 mm 2 mps 716 mmHg 21%
    15:00 +26°C° 0 mm 2 mps 716 mmHg 20%
    16:00 +27°C° 0 mm 2 mps 715 mmHg 20%
    17:00 +26°C° 0 mm 2 mps 715 mmHg 21%
    18:00 +24°C° 0 mm 1 mps 715 mmHg 23%
    19:00 +23°C° 0 mm 1 mps 715 mmHg 25%
    20:00 +23°C° 0 mm 2 mps 714 mmHg 24%
    21:00 +23°C° 0 mm 4 mps 714 mmHg 24%
    22:00 +23°C° 0 mm 5 mps 714 mmHg 24%
    23:00 +23°C° 0 mm 6 mps 713 mmHg 25%

    Day after tomorrow, 18 January, Friday

    Time Temperature Precipitation Wind Pressure Humidity
    00:00 +23°C° 0 mm 7 mps 713 mmHg 26%
    01:00 +23°C° 0 mm 7 mps 713 mmHg 28%
    02:00 +22°C° 0 mm 8 mps 713 mmHg 30%
    03:00 +22°C° 0 mm 8 mps 713 mmHg 32%
    04:00 +22°C° 0 mm 9 mps 713 mmHg 34%
    05:00 +21°C° 0 mm 7 mps 713 mmHg 37%
    06:00 +21°C° 0 mm 6 mps 714 mmHg 40%
    07:00 +20°C° 0 mm 5 mps 715 mmHg 44%
    08:00 +20°C° 0 mm 6 mps 716 mmHg 33%
    09:00 +21°C° 0 mm 6 mps 717 mmHg 23%
    10:00 +21°C° 0 mm 6 mps 717 mmHg 13%
    11:00 +22°C° 0 mm 6 mps 717 mmHg 12%
    12:00 +23°C° 0 mm 5 mps 717 mmHg 12%
    13:00 +23°C° 0 mm 5 mps 716 mmHg 11%
    14:00 +23°C° 0 mm 5 mps 716 mmHg 9%
    15:00 +23°C° 0 mm 6 mps 716 mmHg 8%
    16:00 +22°C° 0 mm 7 mps 716 mmHg 6%
    17:00 +21°C° 0 mm 6 mps 716 mmHg 7%
    18:00 +20°C° 0 mm 5 mps 716 mmHg 7%
    19:00 +19°C° 0 mm 4 mps 717 mmHg 8%
    20:00 +19°C° 0 mm 3 mps 717 mmHg 9%
    21:00 +18°C° 0 mm 3 mps 717 mmHg 10%
    22:00 +17°C° 0 mm 3 mps 717 mmHg 10%
    23:00 +17°C° 0 mm 2 mps 717 mmHg 12%

    19 January, Saturday

    Time Temperature Precipitation Wind Pressure Humidity
    00:00 +16°C° 0 mm 2 mps 717 mmHg 13%
    01:00 +16°C° 0 mm 2 mps 716 mmHg 14%
    02:00 +14°C° 0 mm 3 mps 716 mmHg 17%
    03:00 +14°C° 0 mm 4 mps 716 mmHg 20%
    04:00 +13°C° 0 mm 4 mps 716 mmHg 23%
    05:00 +13°C° 0 mm 4 mps 716 mmHg 26%
    06:00 +12°C° 0 mm 4 mps 716 mmHg 29%
    07:00 +11°C° 0 mm 4 mps 716 mmHg 33%
    08:00 +13°C° 0 mm 5 mps 716 mmHg 31%
    09:00 +14°C° 0 mm 5 mps 717 mmHg 29%
    10:00 +15°C° 0 mm 6 mps 717 mmHg 27%
    11:00 +16°C° 0 mm 5 mps 716 mmHg 25%
    12:00 +18°C° 0 mm 4 mps 716 mmHg 22%
    13:00 +19°C° 0 mm 4 mps 715 mmHg 19%
    14:00 +19°C° 0 mm 4 mps 715 mmHg 19%
    15:00 +19°C° 0 mm 5 mps 715 mmHg 18%
    16:00 +19°C° 0 mm 5 mps 715 mmHg 18%
    17:00 +17°C° 0 mm 5 mps 715 mmHg 20%
    18:00 +16°C° 0 mm 5 mps 715 mmHg 22%
    19:00 +15°C° 0 mm 5 mps 716 mmHg 24%
    20:00 +14°C° 0 mm 6 mps 716 mmHg 27%
    21:00 +12°C° 0 mm 7 mps 716 mmHg 30%
    22:00 +12°C° 0 mm 8 mps 717 mmHg 33%
    23:00 +11°C° 0 mm 9 mps 717 mmHg 34%

    20 January, Sunday

    Time Temperature Precipitation Wind Pressure Humidity
    00:00 +11°C° 0 mm 9 mps 718 mmHg 36%
    01:00 +10°C° 0 mm 9 mps 718 mmHg 37%
    02:00 +10°C° 0 mm 9 mps 719 mmHg 39%
    03:00 +8°C° 0 mm 9 mps 719 mmHg 41%
    04:00 +8°C° 0 mm 9 mps 719 mmHg 43%
    05:00 +7°C° 0 mm 9 mps 720 mmHg 44%
    06:00 +7°C° 0 mm 8 mps 721 mmHg 45%
    07:00 +6°C° 0 mm 8 mps 722 mmHg 46%
    08:00 +7°C° 0 mm 8 mps 722 mmHg 43%
    09:00 +8°C° 0 mm 9 mps 722 mmHg 40%
    10:00 +10°C° 0 mm 9 mps 723 mmHg 37%
    11:00 +10°C° 0 mm 8 mps 722 mmHg 34%
    12:00 +11°C° 0 mm 8 mps 722 mmHg 31%
    13:00 +12°C° 0 mm 7 mps 721 mmHg 27%
    14:00 +12°C° 0 mm 7 mps 721 mmHg 26%
    15:00 +12°C° 0 mm 7 mps 721 mmHg 26%
    16:00 +12°C° 0 mm 7 mps 720 mmHg 25%
    17:00 +11°C° 0 mm 6 mps 721 mmHg 26%
    18:00 +10°C° 0 mm 6 mps 721 mmHg 27%
    19:00 +10°C° 0 mm 5 mps 722 mmHg 28%
    20:00 +9°C° 0 mm 6 mps 722 mmHg 30%
    21:00 +9°C° 0 mm 6 mps 722 mmHg 33%
    22:00 +8°C° 0 mm 6 mps 722 mmHg 35%
    23:00 +8°C° 0 mm 6 mps 722 mmHg 36%

    21 January, Monday

    Time Temperature Precipitation Wind Pressure Humidity
    00:00 +7°C° 0 mm 6 mps 722 mmHg 37%
    01:00 +7°C° 0 mm 6 mps 722 mmHg 38%
    02:00 +7°C° 0 mm 6 mps 722 mmHg 39%
    03:00 +5°C° 0 mm 6 mps 722 mmHg 41%
    04:00 +5°C° 0 mm 7 mps 722 mmHg 43%
    05:00 +5°C° 0 mm 6 mps 722 mmHg 43%
    06:00 +4°C° 0 mm 6 mps 722 mmHg 44%
    07:00 +4°C° 0 mm 6 mps 723 mmHg 44%
    08:00 +5°C° 0 mm 7 mps 723 mmHg 41%
    09:00 +6°C° 0 mm 8 mps 723 mmHg 37%
    10:00 +7°C° 0 mm 8 mps 724 mmHg 33%
    11:00 +9°C° 0 mm 8 mps 723 mmHg 30%
    12:00 +10°C° 0 mm 8 mps 722 mmHg 28%
    13:00 +11°C° 0 mm 7 mps 721 mmHg 25%
    14:00 +11°C° 0 mm 7 mps 721 mmHg 25%
    15:00 +11°C° 0 mm 7 mps 721 mmHg 25%
    16:00 +11°C° 0 mm 7 mps 720 mmHg 24%
    17:00 +10°C° 0 mm 6 mps 720 mmHg 27%
    18:00 +9°C° 0 mm 5 mps 721 mmHg 29%
    19:00 +10°C° 0 mm 4 mps 721 mmHg 31%
    20:00 +8°C° 0 mm 4 mps 721 mmHg 33%
    21:00 +8°C° 0 mm 4 mps 721 mmHg 35%
    22:00 +7°C° 0 mm 4 mps 721 mmHg 36%
    23:00 +7°C° 0 mm 4 mps 721 mmHg 38%
    Show more